{"data":{"norad_id":58282,"intl_designator":"2023-174AC","name":"FLOCK 4Q-27","alt_names":[],"object_type":"PAYLOAD","status":"ACTIVE","operator":null,"country":"US","launch_date":"2023-11-11","launch_site_code":"AFWTR","launch_vehicle":null,"mission":null,"orbit_class":"UNKNOWN","rcs_meters":null,"size_class":null,"mass_kg":null,"dimensions":null,"purposes":["earth_obs"],"wikipedia_slug":null,"has_3d_model":false,"image_url":null,"decayed_at":null,"tle_current":{"epoch":"2026-05-25T04:39:52.444800Z","epoch_age_seconds":61424,"freshness":"FRESH","line1":"1 58282U 23174AC  26145.19435700  .00028041  00000+0  44719-3 0  9991","line2":"2 58282  97.3813 235.1173 0004837 208.4771 151.6219 15.53185687142181","mean_motion":15.53185687,"eccentricity":0.0004837,"inclination_deg":97.3813,"raan_deg":235.1173,"arg_perigee_deg":208.4771,"mean_anomaly_deg":151.6219,"bstar":0.00044719,"rev_number":14218,"period_min":92.712675120087,"perigee_km":404.14956696287,"apogee_km":410.71392616829,"semimajor_km":6785.5687465656,"source":"CELESTRAK","updated_at":"2026-05-25T13:38:13.298702Z"}}}